Location: Santa Barbara
(34.4500°N, 119.7700°W)
Time: 01:39:30
(UTC-07:00)

Cosmos 1626 Rocket - Visible Passes

Search period start: 01 October 2016 00:00
Search period end: 11 October 2016 00:00
Orbit: 602 x 633 km, 82.5° (Epoch: 30 September)

Date Brightness Start Highest point End Pass type
(mag) Time Alt. Az. Time Alt. Az. Time Alt. Az.
01 Oct 5.0 04:42:12 18° SSE 04:44:58 36° E 04:48:58 10° NNE visible
01 Oct 5.2 06:20:29 10° WSW 06:22:54 15° WNW 06:25:21 10° NW visible
02 Oct 3.6 05:00:38 49° SSE 05:01:45 75° E 05:06:05 10° N visible
03 Oct 3.6 05:18:44 53° WNW 05:18:44 53° WNW 05:22:51 10° N visible
04 Oct 6.3 03:59:25 16° ENE 03:59:25 16° ENE 04:01:00 10° NE visible
04 Oct 4.7 05:36:37 24° NW 05:36:37 24° NW 05:39:14 10° NNW visible
05 Oct 5.9 04:17:08 19° NE 04:17:08 19° NE 04:18:36 10° NNE visible
05 Oct 5.6 05:54:19 12° NW 05:54:19 12° NW 05:54:56 10° NW visible
06 Oct 5.9 04:34:43 17° NNE 04:34:43 17° NNE 04:35:42 10° N visible
07 Oct 6.1 04:52:12 12° N 04:52:12 12° N 04:52:28 10° N visible
